HST 1 20580U 90037B 26104.23629456 .00003908 00000+0 12299-3 0 9999 2 20580 28.4729 157.4075 0002271 151.2476 208.8245 15.30044126778766 POLAR 1 23802U 96013A 26103.33818853 .00000113 00000+0 00000+0 0 9998 2 23802 79.7901 227.7998 6405301 211.2964 86.0174 1.29845761144017 SWAS 1 25560U 98071A 26104.19708416 .00002436 00000+0 15952-3 0 9991 2 25560 69.8974 32.4798 0006634 324.0110 36.0607 15.09179038487617 CXO 1 25867U 99040B 26105.90737653 .00000932 00000+0 00000+0 0 9996 2 25867 55.1609 118.4976 7943121 310.5395 0.1381 0.37807016 17086 XMM-NEWTON 1 25989U 99066A 26105.52041533 .00000139 00000+0 00000+0 0 9991 2 25989 64.8079 283.7888 4696661 66.0314 0.0348 0.50125345 22690 TERRA 1 25994U 99068A 26104.26311668 .00000235 00000+0 56827-4 0 9998 2 25994 97.9521 156.3256 0003598 79.6982 1.6679 14.61052446400273 CLUSTER II-FM7 (SAMBA) 1 26410U 00041A 26103.42847287 .00002693 00000+0 00000+0 0 9990 2 26410 149.4965 39.9054 8971645 256.3507 0.6187 0.44801462 20015 CLUSTER II-FM8 (TANGO) 1 26464U 00045B 26105.37029088 .00002607 00000+0 00000+0 0 9995 2 26464 149.8154 41.2510 8981499 257.5394 0.5870 0.44407628 20010 ODIN 1 26702U 01007A 26103.61279762 .00025544 00000+0 29175-3 0 9993 2 26702 97.4002 141.1692 0003684 67.9289 292.2360 15.62174783379284 TIMED 1 26998U 01055B 26104.17747010 .00000839 00000+0 80038-4 0 9997 2 26998 74.0697 3.8891 0002270 228.6005 131.4985 14.95146436321259 CORIOLIS 1 27640U 03001A 26104.28507844 .00000084 00000+0 59913-4 0 9996 2 27640 98.7152 112.1410 0014744 40.8810 319.3469 14.19926617205158 SORCE 1 27651U 03004A 26104.17530729 .00001725 00000+0 13534-3 0 9998 2 27651 39.9905 266.7899 0018285 309.8822 50.0364 15.03365860262264 MOST 1 27843U 03031D 26104.29078752 .00000046 00000+0 40979-4 0 9996 2 27843 98.7072 112.9035 0010984 78.5549 281.6861 14.21309059181635 SCISAT 1 1 27858U 03036A 26104.27353495 .00000358 00000+0 50481-4 0 9990 2 27858 73.9288 298.3256 0006902 7.6520 352.4761 14.81374058221982 SWIFT 1 28485U 04047A 26104.26851296 .00029237 00000+0 30197-3 0 9999 2 28485 20.5539 315.7531 0002396 121.0402 239.0279 15.62709347176839 HINODE (SOLAR-B) 1 29479U 06041A 26104.27564247 .00000372 00000+0 72487-4 0 9995 2 29479 98.0592 121.3635 0018679 128.2387 232.0503 14.68531898 45499 SHIJIAN-6 02A (SJ-6 02A) 1 29505U 06046A 26104.28862472 .00002267 00000+0 12087-3 0 9996 2 29505 97.6437 144.8904 0003462 32.2343 327.9101 15.16229539 62588 SHIJIAN-6 02B (SJ-6 02B) 1 29506U 06046B 26104.22765463 .00001325 00000+0 10799-3 0 9995 2 29506 97.7125 133.6953 0011532 284.7216 75.2729 15.01174138 61142 FGRST (GLAST) 1 33053U 08029A 26104.18332045 .00002252 00000+0 77802-4 0 9990 2 33053 25.5825 288.7732 0007795 293.3826 66.5892 15.23602090986064 SDO 1 36395U 10005A 26102.41844348 -.00000038 00000+0 00000+0 0 9999 2 36395 34.5141 87.3349 0000480 33.1705 128.9991 1.00273674 59408 CRYOSAT 2 1 36508U 10013A 26104.26150720 .00000099 00000+0 23937-4 0 9998 2 36508 92.0270 261.7929 0002547 95.8210 264.3288 14.51902437848800 X-SAT 1 37389U 11015C 26104.26793810 .00000296 00000+0 14342-3 0 9990 2 37389 98.3471 84.3531 0014125 165.6330 194.5254 14.25187940778570 GCOM-W1 (SHIZUKU) 1 38337U 12025A 26104.32655593 .00000299 00000+0 76251-4 0 9999 2 38337 98.2097 45.8645 0001124 82.6161 79.2571 14.57148931739738 NUSTAR 1 38358U 12031A 26104.33335648 .00001649 00000+0 50155-4 0 9991 2 38358 6.0248 152.8756 0008792 240.6271 258.2482 15.08189190 2668 NEOSSAT 1 39089U 13009D 26104.23685166 .00000124 00000+0 57561-4 0 9996 2 39089 98.4165 285.7931 0012190 78.7437 281.5118 14.35803733687563 BRITE-AUSTRIA 1 39091U 13009F 26103.98859766 .00000119 00000+0 55088-4 0 9995 2 39091 98.3981 285.0169 0011353 74.1753 286.0684 14.36516147687837 IRIS 1 39197U 13033A 26103.51442383 .00000749 00000+0 92171-4 0 9994 2 39197 97.9379 302.9831 0024738 167.4951 192.6883 14.85750870690779 HISAKI (SPRINT-A) 1 39253U 13049A 26104.20125613 .00000126 00000+0 79157-4 0 9993 2 39253 29.7188 185.3170 0136543 218.1606 140.9230 13.55536137622738 CASSIOPE 1 39265U 13055A 26104.23041095 .00017518 -44261-6 20570-3 0 9999 2 39265 80.9157 144.1252 0304736 277.1109 79.5567 15.21272996657939 STSAT-3 1 39422U 13066G 26104.24822264 .00002306 00000+0 17861-3 0 9995 2 39422 97.6172 75.2194 0008126 242.0079 118.0324 15.02396117674600 SWARM B 1 39451U 13067A 26104.22988695 .00002045 00000+0 73202-4 0 9999 2 39451 87.7498 1.7291 0002511 80.6153 279.5380 15.28178879673476 SWARM A 1 39452U 13067B 26104.18577494 .00006722 00000+0 12082-3 0 9990 2 39452 87.3290 79.9897 0003673 93.6925 266.4755 15.49627725696336 SWARM C 1 39453U 13067C 26104.18571588 .00006764 00000+0 12159-3 0 9990 2 39453 87.3291 78.5708 0003699 93.8883 266.2801 15.49626445696290 BRITE-CA1 (TORONTO) 1 40020U 14033L 26104.30400481 .00000717 00000+0 11517-3 0 9992 2 40020 97.9633 234.4504 0079958 121.0398 239.8691 14.72576731632810 OCO 2 1 40059U 14035A 26104.29246186 .00000251 00000+0 65636-4 0 9999 2 40059 98.1975 46.5753 0001648 86.1006 274.0381 14.57136586626745 BRITE-PL2 (HEWELIUSZ) 1 40119U 14049B 26104.29758150 .00000955 00000+0 94235-4 0 9998 2 40119 97.9017 215.8441 0013175 326.1190 33.9187 14.94357869631900 MMS 1 1 40482U 15011A 26104.33335648 -.00000728 00000+0 00000+0 0 9990 2 40482 71.4731 349.6028 8383251 166.1008 264.4284 0.28328332 1324 MMS 2 1 40483U 15011B 26104.33335648 -.00000728 00000+0 00000+0 0 9991 2 40483 71.4722 349.6047 8383862 166.1059 264.4120 0.28328467 1328 MMS 3 1 40484U 15011C 26104.33335648 -.00000728 00000+0 00000+0 0 9992 2 40484 71.4760 349.6095 8383247 166.1010 264.4175 0.28328327 1323 MMS 4 1 40485U 15011D 26104.33335648 -.00000728 00000+0 00000+0 0 9993 2 40485 71.4721 349.6047 8382648 166.1077 264.4030 0.28328451 1323 ASTROSAT 1 40930U 15052A 26104.04458961 .00001376 00000+0 86080-4 0 9991 2 40930 5.9972 257.0249 0008113 202.9651 157.0114 14.82393548570296 DAMPE 1 41173U 15078A 26104.30030572 .00000782 00000+0 29031-4 0 9995 2 41173 97.4582 109.4575 0010722 309.2178 50.8111 15.30625272574775 PISAT 1 41784U 16059B 26104.24922029 .00000690 00000+0 12531-3 0 9997 2 41784 97.8192 107.4543 0030247 51.8046 308.5877 14.68865573510351 HXMT (HUIYAN) 1 42758U 17034A 26104.31652600 .00002618 00000+0 13707-3 0 9994 2 42758 43.0133 178.5302 0030354 100.4002 260.0270 15.17923765487956 FLYING LAPTOP 1 42831U 17042G 26104.31849733 .00001795 00000+0 14556-3 0 9998 2 42831 97.4397 262.4390 0019103 343.4178 16.6419 15.00754094476873 ZHANGHENG 1-01 (CSES-1) 1 43194U 18015C 26104.31612291 .00005058 00000+0 22957-3 0 9999 2 43194 97.6807 268.7254 0019032 116.4112 243.9079 15.21111987454930 SALSAT 1 46495U 20068K 26103.56539140 .00004439 00000+0 16112-3 0 9992 2 46495 97.8865 102.7460 0010532 159.4430 200.7234 15.28855640305482 IXPE 1 49954U 21121A 26104.25002315 .00007196 00000+0 37865-3 0 9993 2 49954 0.2294 80.3675 0007457 190.6476 89.0434 15.09660871 5731